RH
38 44 57 57 59 63 66 81 96 89 76 72 73 66 64 66 61 61 62 67 63 57 60 69 72 71 66 62 61 65 66 75 75 76 76 79 86 86
40 47 46 48 59 66 72 75 83 96 96 77 80 77 71 69 70 66 65 67 67 62 54 52 56 61 64 62 60 60 62 66 70 69 72 73 79 84
46 51 52 58 70 70 65 70 81 91 93 82 84 83 82 78 71 65 66 67 72 76 73 66 78 81 79 73 68 63 70 74 74 76 80 78 78 83
48 51 56 72 58 41 51 75 86 89 94 92 88 84 84 79 73 67 64 65 70 76 79 72 74 80 81 74 81 86 84 82 78 76 72 77 77 80
50 53 66 58 53 51 54 80 94 94 93 96 89 89 87 83 85 81 78 67 64 69 72 76 81 81 80 84 91 89 83 84 77 75 79 71 83 87
50 55 64 60 62 65 68 73 83 94 93 95 93 90 84 81 89 92 85 78 73 64 67 75 72 75 77 84 80 78 76 82 82 79 86 81 91 92
51 55 62 63 62 68 89 88 89 95 98 96 91 93 80 80 84 90 98 91 82 77 66 67 74 78 81 80 69 68 71 78 88 87 93 88 95 98
56 54 54 59 58 62 82 84 81 82 90 95 92 90 84 75 72 76 87 95 90 79 72 68 72 72 69 71 66 85 81 77 100 98 99 100 100 100
53 53 57 56 57 59 63 76 79 80 80 78 90 91 90 87 86 87 93 94 88 80 82 84 78 76 70 70 77 89 96 87 100 100 100 100 100 99
52 51 54 47 50 54 54 65 70 74 76 70 68 68 68 74 89 97 97 98 93 98 89 88 85 79 74 70 76 81 90 99 100 100 100 100 100 98
48 47 46 46 42 48 64 78 75 74 78 76 63 62 64 66 69 91 96 98 90 90 94 97 85 83 74 74 89 93 91 99 100 99 99 100 100 100
56 58 53 52 46 46 73 78 85 85 75 80 70 64 61 63 60 69 96 96 92 96 93 96 84 84 99 98 98 93 98 100 100 99 99 100 99 100
60 60 57 50 47 54 74 68 69 67 77 85 86 77 69 71 66 66 78 96 92 98 86 92 93 100 99 97 87 85 88 90 95 99 100 99 100 99
61 59 57 55 55 53 52 58 70 73 78 85 87 89 86 83 70 69 67 92 98 98 99 97 90 92 96 100 99 90 87 88 93 95 99 99 100 100
61 58 55 53 55 63 63 71 76 81 84 90 92 92 89 83 68 78 75 82 94 99 97 100 100 94 92 98 95 94 98 94 90 94 92 99 100 100
52 50 48 50 56 62 74 76 74 74 79 81 81 82 82 88 89 87 92 98 100 99 99 100 100 100 100 99 100 100 99 98 98 98 97 98 100 100
71 73 73 68 71 73 75 74 76 84 86 82 93 97 96 98 96 92 84 99 100 99 99 100 100 99 100 99 100 99 99 100 99 100 100 100 99 99
76 82 84 84 86 83 87 91 78 80 92 93 99 74 88 92 98 93 84 100 99 99 100 100 100 100 99 99 99 100 100 100 99 100 100 100 100 100
79 81 84 86 84 85 84 81 81 79 87 95 90 85 88 88 100 98 90 99 98 99 100 100 100 98 98 98 100 100 100 100 100 100 100 100 99 100
83 86 86 87 87 92 92 88 86 85 93 96 96 94 93 98 100 94 96 99 98 99 100 100 100 100 97 93 96 96 96 99 98 100 100 100 99 100
92 99 99 99 99 99 100 99 97 98 99 100 97 94 97 100 99 99 98 99 99 100 98 99 99 99 100 100 98 100 97 96 99 98 97 98 98 98
95 93 93 98 98 99 99 100 100 100 100 92 94 98 100 100 99 97 98 99 99 99 99 100 99 99 100 96 95 97 98 100 99 99 100 97 92 97
95 97 97 98 98 99 100 99 100 100 100 88 91 98 99 100 100 99 100 100 100 100 98 98 98 98 98 98 96 97 98 100 99 99 98 98 98 97
Wind_Speed
22 21 20 21 19 16 16 15 10 10 13 18 16 9 11 14 17 23 26 24 22 20 20 20 21 21 23 24 26 26 27 27 26 28 28 27 27 26
23 22 23 23 22 19 16 16 16 15 10 18 21 23 22 23 24 22 26 24 22 22 23 24 25 26 27 28 28 25 26 26 26 27 28 28 28 28
26 24 24 23 22 22 22 20 18 15 11 23 23 26 29 28 24 25 24 24 23 20 21 20 20 19 22 26 27 27 28 26 26 27 28 27 28 27
27 25 25 22 24 26 24 22 19 18 17 16 20 21 23 23 27 29 28 23 22 21 20 22 17 17 18 23 23 23 23 26 26 28 29 28 29 30
27 28 24 24 24 24 23 22 20 18 19 17 20 18 21 21 26 29 29 28 25 21 20 16 15 18 22 20 19 21 24 28 28 29 29 30 28 27
26 26 26 26 25 23 22 21 20 20 20 17 17 18 18 18 20 23 25 26 26 23 19 20 20 21 20 19 20 23 24 24 25 27 27 27 27 26
28 28 28 28 24 22 19 21 18 17 14 15 14 16 14 13 15 14 17 20 22 22 21 21 18 17 21 23 27 23 22 23 22 24 25 26 26 23
30 31 30 27 26 23 19 18 18 18 17 15 15 14 16 16 18 19 18 15 5 13 15 22 19 23 27 29 25 20 19 20 18 20 19 20 22 23
32 32 31 30 27 24 22 20 20 19 18 20 18 18 18 18 19 20 18 20 21 22 22 20 21 25 27 30 18 17 17 15 15 12 15 19 19 20
32 33 32 32 31 28 25 23 23 22 21 20 19 21 25 24 22 22 23 25 25 22 23 15 19 22 24 26 19 18 15 14 16 14 13 14 14 15
32 32 32 32 31 26 23 23 25 26 24 20 21 22 23 25 25 24 22 18 15 17 21 16 14 14 22 26 18 13 14 14 14 13 14 14 15 15
31 31 31 30 30 27 22 23 24 24 23 25 25 24 23 26 28 26 23 20 18 8 15 16 12 7 4 7 7 7 7 10 14 13 12 11 12 17
25 27 30 29 27 25 22 21 24 26 25 23 23 26 27 25 23 26 26 25 21 20 16 22 12 9 6 5 12 12 12 10 11 9 11 10 12 14
26 27 30 31 30 25 23 22 21 23 25 24 23 24 25 27 30 28 31 28 27 26 27 25 14 18 11 4 6 7 12 11 10 9 9 10 12 14
27 29 30 30 29 27 24 22 21 23 24 23 21 23 27 30 33 29 29 29 28 29 26 27 29 23 17 13 6 6 6 5 15 13 9 9 12 15
28 27 28 27 26 25 20 21 21 23 23 26 27 28 29 29 29 27 25 22 23 22 27 27 29 25 21 23 20 16 19 6 6 10 9 8 10 11
24 23 24 25 26 26 26 28 27 23 24 28 25 24 24 23 26 26 23 20 18 14 18 26 23 22 22 19 14 20 19 18 15 13 11 10 11 11
29 23 21 21 22 23 20 20 21 22 25 27 25 25 22 22 20 19 20 19 18 18 18 19 23 14 11 14 20 17 14 17 16 12 11 10 9 8
25 21 19 19 21 21 21 21 22 23 24 26 24 24 24 23 20 17 19 21 20 20 20 21 20 14 6 5 6 17 16 12 10 10 13 11 6 12
22 21 21 20 21 23 23 22 24 24 25 26 25 24 24 22 19 16 21 20 19 18 17 19 20 20 11 6 5 8 12 13 10 11 11 10 7 9
17 18 21 21 21 22 24 25 25 24 24 22 21 23 22 20 18 19 21 21 22 17 15 17 26 25 20 11 4 5 6 7 10 12 11 11 7 7
22 21 21 23 22 23 23 23 23 23 21 20 20 21 22 21 19 22 21 19 18 18 18 16 18 20 19 13 4 7 6 4 4 7 11 10 6 4
22 21 22 23 24 24 23 23 23 23 23 22 22 20 21 20 22 23 21 19 19 15 17 15 18 17 13 10 10 9 10 14 10 11 8 5 3 3
Wind_Direction
308 309 309 306 309 305 299 295 278 292 289 293 286 281 268 270 287 299 302 304 302 296 290 283 283 282 284 282 278 274 272 270 269 269 267 264 263 261
302 300 300 301 304 306 304 298 290 276 285 285 287 283 271 265 275 288 299 299 297 298 300 290 284 279 279 280 275 273 270 268 266 265 264 263 261 259
297 296 295 296 298 301 302 299 293 285 279 290 290 289 282 270 268 283 288 295 295 299 308 295 282 275 282 280 277 273 269 267 264 262 261 260 259 258
292 290 289 290 297 299 299 296 292 289 281 287 294 293 287 282 285 287 279 281 287 292 298 299 273 285 280 292 281 278 274 268 265 264 261 258 258 256
289 287 277 288 293 294 299 295 293 292 290 286 291 299 290 288 290 281 279 281 275 283 294 295 289 277 289 289 283 279 281 273 268 264 262 254 256 255
284 281 275 285 287 289 292 294 291 288 290 284 282 287 286 292 290 272 271 275 272 275 283 296 290 284 279 282 290 286 286 280 270 260 260 249 250 250
284 281 278 281 284 284 279 286 293 293 285 285 286 280 282 292 281 280 279 273 281 279 281 287 295 289 288 288 299 297 283 281 268 259 257 247 247 250
280 283 282 281 280 280 274 269 280 289 285 284 288 289 296 294 286 286 283 264 269 268 266 281 278 288 300 305 302 300 289 279 269 258 253 244 240 241
279 280 281 281 281 282 284 277 275 275 277 282 277 278 285 287 290 291 288 273 265 265 269 265 277 283 297 308 290 300 300 271 258 257 241 240 240 246
278 277 277 280 279 280 281 283 284 282 276 277 274 284 287 294 292 285 282 285 285 269 257 259 267 275 296 300 293 288 275 265 261 257 257 252 247 247
283 281 278 277 278 277 269 272 281 284 286 275 273 281 283 291 296 293 284 274 272 265 242 239 259 277 300 296 293 280 263 262 262 269 264 259 249 244
277 276 276 271 274 272 260 263 268 274 285 285 280 277 277 284 291 290 277 269 273 265 232 204 228 248 308 284 302 327 303 273 265 267 272 263 244 232
269 272 277 281 277 270 252 260 266 279 282 279 280 286 290 284 280 286 289 271 268 260 249 215 213 206 198 279 300 305 303 296 282 272 253 248 240 231
270 274 279 283 278 268 262 263 264 268 272 273 277 278 279 279 287 287 286 283 276 267 259 241 234 212 200 218 249 261 295 306 303 295 279 252 235 230
271 274 278 280 280 269 260 261 263 263 268 268 269 268 275 280 289 283 287 290 283 279 273 254 234 231 222 216 226 243 312 263 301 290 281 266 247 238
275 276 278 282 275 265 261 262 259 263 264 270 270 272 275 275 275 274 279 288 269 269 261 253 234 232 225 230 244 250 260 266 284 305 313 275 247 238
281 277 272 267 256 259 265 270 273 273 266 269 264 267 271 268 268 262 272 276 261 254 244 236 225 227 239 236 229 244 253 266 274 280 272 257 244 245
282 272 261 249 244 250 249 252 262 260 255 261 252 259 261 270 259 262 270 271 258 249 238 220 212 202 221 239 234 240 251 263 273 269 242 234 233 227
272 266 258 248 246 245 245 249 253 255 256 252 252 259 259 262 253 263 269 261 252 247 236 213 195 188 184 205 179 226 233 255 254 244 231 216 212 208
264 258 254 248 247 245 244 245 249 251 248 250 253 258 258 250 247 260 270 252 244 237 224 204 197 196 198 200 163 197 221 235 231 229 207 205 214 197
266 257 252 249 244 245 247 250 250 249 249 249 254 257 253 240 250 262 262 249 245 227 216 208 211 218 203 190 141 154 204 224 228 221 201 181 169 181
257 256 253 249 250 248 249 247 247 248 247 256 260 260 244 246 255 263 253 247 241 222 218 210 196 186 189 187 156 152 169 158 197 212 206 195 178 193
253 252 250 250 253 253 250 250 249 247 243 248 259 257 256 250 262 249 246 244 231 202 176 157 165 177 177 176 165 164 162 155 152 139 136 167 181 182